Location: Casilda
(33.0440°S, 61.1680°W)
Time: 23:05:19
(UTC-03:00)

ISS - Visible Passes

Search period start: 21 January 2019 00:00
Search period end: 31 January 2019 00:00
Orbit: 404 x 410 km, 51.6° (Epoch: 22 January)

Date Brightness Start Highest point End Pass type
(mag) Time Alt. Az. Time Alt. Az. Time Alt. Az.
26 Jan -2.0 05:05:55 14° N 05:07:56 25° NE 05:10:44 10° ESE visible
27 Jan -1.0 04:16:53 12° ENE 04:16:53 12° ENE 04:18:08 10° E visible
27 Jan -3.2 05:49:44 10° WNW 05:52:57 46° SW 05:56:12 10° SE visible
28 Jan -3.8 05:00:29 40° NW 05:01:34 81° NE 05:04:54 10° SE visible
29 Jan -1.9 04:11:17 27° E 04:11:17 27° E 04:13:20 10° ESE visible
29 Jan -1.8 05:44:21 10° W 05:46:51 19° SW 05:49:22 10° SSE visible
30 Jan -2.7 04:54:43 31° WSW 04:55:18 34° SW 04:58:24 10° SSE visible
